Other Public Products
Issued by NWS Charleston, SC

Current Version | Previous Version | Graphics & Text | Print | Product List | Glossary On
Versions: 1 2 3 4 5 6 7 8 9 10 11 12 13 14 15 16 17 18 19 20 21 22 23 24 25 26 27 28 29 30 31 32 33 34 35 36 37 38 39 40 41 42 43 44 45 46 47 48 49 50
758 FPUS82 KCHS 201425 OPUCHS TEST...KCHS/KSAV Gateway Observations...TEST National Weather Service Charleston SC 1000 AM EDT WED SEP 20 2017 NOTE: "fair" indicates few or no clouds below 12,000 feet with no significant weather and/or obstructions to visibility. SCZ050-WAZ558-NCZ071-TXZ119-213-PAZ071-DCZ001-FLZ074-172-MI076- NYZ176-178-MAZ016-IL014-TNZ027-NJZ106-GAZ044-MD014-201500- ...Gateway Observations for Charleston International... CITY SKY/WX TMP DP RH WIND PRES REMARKS Chas Airport MOSUNNY 80 71 74 W9 30.05R Seattle CLOUDY 51 50 96 CALM 29.63R Charlotte MOSUNNY 79 71 76 W6 30.07R Dallas DFW MOSUNNY 81 73 76 S16 29.88R Dallas Love MOSUNNY 80 72 76 S16G23 29.90R Philladelphia MOSUNNY 75 63 66 N15 29.91S Wash National CLOUDY 75 64 68 NW9 29.99R Baltimore PTSUNNY 74 66 76 NW9 29.96R Miami MOSUNNY 86 74 67 CALM 30.00R HX 94 Detroit CLOUDY 69 68 96 CALM 30.03R FOG Newark PTSUNNY 76 64 66 N20 29.88R Laguardia CLOUDY 74 65 73 N18 29.87R J F K PTSUNNY 77 66 68 N20G29 29.86S Boston Logan CLOUDY 67 66 97 N24G31 29.89S Ft. Lauderdale MOSUNNY 87 76 69 SE7 29.99S HX 97 Chicago O`Hare MOSUNNY 73 65 75 SE12 29.91S Chicago Midway MOSUNNY 74 66 76 SE10 29.92S Houston Bush MOSUNNY 83 77 82 S7 29.95R HX 92 Houston Hobby MOSUNNY 84 77 79 S6 29.94R HX 94 Nashville PTSUNNY 74 68 81 SE3 30.07R Atlanta SUNNY 78 68 71 NW7 30.08R $$ GAZ044-118-TXZ119-213-NCZ071-DCZ001-MDZ014-506-PAZ021-071-NJZ106- NYZ176-178-MAZ106-OHZ011-021-055-MIZ076-KYZ091-ILZ014-INZ047- MNZ060-ONZ431-201500- ...Gateway Observations for Savannah International... CITY SKY/WX TMP DP RH WIND PRES REMARKS Savannah Arpt CLOUDY 81 71 71 SW8 30.05R Atlanta SUNNY 78 68 71 NW7 30.08R Charlotte MOSUNNY 79 71 76 W6 30.07R Dallas DFW MOSUNNY 81 73 76 S16 29.88R Houston Bush MOSUNNY 83 77 82 S7 29.95R HX 92 Wash National CLOUDY 75 64 68 NW9 29.99R Wash Dulles MOSUNNY 73 65 75 NW8 30.00R Baltimore PTSUNNY 74 66 76 NW9 29.96R Philadelphia MOSUNNY 75 63 66 N15 29.91S Newark PTSUNNY 76 64 66 N20 29.88R Laguardia CLOUDY 74 65 73 N18 29.87R J F K PTSUNNY 77 66 68 N20G29 29.86S Boston CLOUDY 67 66 97 N24G31 29.89S Pittsburg PTSUNNY 71 64 78 CALM 30.06R Akron CLOUDY 73 64 73 W5 30.06R Cleveland CLOUDY 74 67 78 W5 30.06R Cincinnati PTSUNNY 71 71 100 S7 30.05R Columbus SUNNY 72 68 87 CALM 30.05S Detroit CLOUDY 69 68 96 CALM 30.03R FOG Chicago O`Hare MOSUNNY 73 65 75 SE12 29.91S Minneapolis PTSUNNY 68 65 90 W10 29.69R Indianapolis FOG 69 68 96 SE7 30.01R VSB 1/8 Toronto Canada PTSUNNY 70 64 83 VRB2 30.06S $$

USA.gov is the U.S. government's official web portal to all federal, state and local government web resources and services.